Regional Weather Roundup
Issued by NWS

Home | Current Version | Previous Version | Text Only | Print | Product List | Glossary On
Versions: 1 2 3 4 5 6 7 8 9 10 11 12 13 14 15 16 17 18 19 20 21 22 23 24 25 26 27 28 29 30 31 32 33 34 35 36 37 38 39 40 41 42 43 44 45 46 47 48 49 50
000
ASUS45 KABQ 260310
RWRNM
NEW MEXICO REGIONAL WEATHER ROUNDUP
NATIONAL WEATHER SERVICE ALBUQUERQUE NM
800 PM MST SUN FEB 25 2018

NOTE: "FAIR" MEANS FEW OR NO CLOUDS BELOW 12,000 FEET AGL WITH NO
       SIGNIFICANT WEATHER OR OBSTRUCTIONS TO VISION.

      THIS PRODUCT IS RELEASED AS TWO VERSIONS.  ONE VERSION NEAR
      THE TOP OF THE HOUR CONTAINING PRELIMINARY DATA FROM ALBUQUERQUE
      AND OTHER STATIONS.  A FINAL VERSION WITH ADDITIONAL DATA IS
      ISSUED ABOUT 10 MINUTES AFTER THE HOUR.

NMZ501-503-504-510>518-260400-
NORTHWEST PLATEAU/NORTHCENTRAL MOUNTAINS

CITY           SKY/WX    TMP DP  RH WIND       PRES   REMARKS
FARMINGTON     FAIR      33   6  32 CALM      30.16R
LOS ALAMOS     FAIR      30   5  35 W8        30.17R WCI  22
SANTA FE       FAIR      28   8  43 W6        30.16R WCI  22
TAOS           FAIR      23   8  52 SW9       30.18R WCI  13
ANGEL FIRE     FAIR      20   0  42 S3        30.13R

$$
NMZ402-403-502-505>509-260400-
WESTCENTRAL MOUNTAINS/SOUTHWEST MOUNTAINS

CITY           SKY/WX    TMP DP  RH WIND       PRES   REMARKS
GALLUP         FAIR      28  13  53 CALM      30.17R
GRANTS         FAIR      26   4  40 NW6       30.20R WCI  19
SILVER CITY    FAIR      31  12  45 N8        30.17R WCI  24

$$
NMZ407-409-411-412-260400-
SOUTHERN DESERTS

CITY           SKY/WX    TMP DP  RH WIND       PRES   REMARKS
DEMING         FAIR      41   8  25 CALM      30.16R
LAS CRUCES     FAIR      41   5  22 CALM      30.17R
HOLLOMAN AFB   FAIR      38   7  27 N8        30.19R WCI  32
ALAMOGORDO     FAIR      45   1  16 NE8       30.18R
T OR C         FAIR      45   6  20 CALM      30.16R

$$
NMZ519>523-260400-
CENTRAL VALLEYS/CENTRAL HIGHLANDS

CITY           SKY/WX    TMP DP  RH WIND       PRES   REMARKS
ALBUQUERQUE    FAIR      37  10  32 N8        30.18R WCI  31
DOUBLE EAGLE   CLEAR     27   5  39 CALM      30.19R
MORIARTY ARPT  FAIR      31   6  35 CALM      30.18R
CLINES CORNERS FAIR      25   5  42 W20       30.14R WCI  11
BELEN          FAIR      35   4  28 NE5       30.19R WCI  31
SOCORRO        FAIR      38   4  23 N7        30.19R WCI  33

$$
NMZ524>526-539-540-260400-
SOUTHCENTRAL MOUNTAINS

CITY           SKY/WX    TMP DP  RH WIND       PRES   REMARKS
RUIDOSO        FAIR      32  -2  23 W6        30.19R WCI  26

$$
NMZ527>531-260400-
NORTHEAST HIGHLANDS/NORTHEAST PLAINS

CITY           SKY/WX    TMP DP  RH WIND       PRES   REMARKS
LAS VEGAS      FAIR      30  -1  26 N5        30.08R WCI  25
RATON          FAIR      33  -6  18 W3        30.04R
CLAYTON        FAIR      34 -10  15 SW6       30.05R WCI  29

$$
NMZ532>537-260400-
EASTCENTRAL PLAINS

CITY           SKY/WX    TMP DP  RH WIND       PRES   REMARKS
SANTA ROSA     FAIR      37   6  27 W10G17    30.11R WCI  30
TUCUMCARI      FAIR      36  -2  20 SW9       30.08R WCI  29
CANNON AFB     FAIR      40   4  22 W12       30.13R WCI  33
CLOVIS AIRPORT FAIR      35   5  28 W12       30.12R WCI  27

$$
NMZ028-029-538-260400-
SOUTHEAST PLAINS

CITY           SKY/WX    TMP DP  RH WIND       PRES   REMARKS
ROSWELL        FAIR      42   3  19 NW5       30.13R
ARTESIA        FAIR      43   1  17 CALM      30.15R
CARLSBAD       FAIR      45   3  17 NW5       30.13R
HOBBS          FAIR      37   0  20 N6        30.14R WCI  33


$$




USA.gov is the U.S. government's official web portal to all federal, state and local government web resources and services.